TimeCST,TemperatureF,Dew PointF,Humidity,Sea Level PressureIn,VisibilityMPH,Wind Direction,Wind SpeedMPH,Gust SpeedMPH,PrecipitationIn,Events,Conditions,WindDirDegrees,DateUTC
12:15 AM,57.6,57.6,100,30.00,10.0,ENE,11.5,19.6,N/A,,Overcast,60,2013-02-12 06:15:00
12:35 AM,58.1,58.1,100,30.00,10.0,NE,9.2,-,N/A,Thunderstorm,Overcast,50,2013-02-12 06:35:00
12:55 AM,58.1,58.1,100,30.00,10.0,NE,10.4,-,N/A,,Overcast,40,2013-02-12 06:55:00
1:15 AM,57.9,57.9,100,30.00,10.0,NE,9.2,17.3,N/A,,Overcast,50,2013-02-12 07:15:00
1:35 AM,57.7,57.7,100,29.99,10.0,NE,12.7,16.1,N/A,,Overcast,50,2013-02-12 07:35:00
1:55 AM,57.7,57.7,100,29.98,10.0,NE,8.1,-,N/A,,Overcast,40,2013-02-12 07:55:00
2:15 AM,57.7,57.7,100,29.98,10.0,NE,8.1,-,N/A,Rain,Light Rain,40,2013-02-12 08:15:00
2:35 AM,57.7,57.7,100,29.96,10.0,NE,10.4,-,N/A,,Overcast,50,2013-02-12 08:35:00
2:55 AM,57.7,57.7,100,29.96,10.0,ENE,8.1,-,N/A,,Overcast,60,2013-02-12 08:55:00
3:15 AM,57.9,57.9,100,29.96,10.0,ENE,11.5,-,N/A,,Overcast,60,2013-02-12 09:15:00
3:35 AM,57.7,57.7,100,29.95,10.0,ENE,9.2,-,N/A,,Overcast,60,2013-02-12 09:35:00
3:55 AM,58.1,58.1,100,29.95,10.0,ENE,9.2,-,N/A,,Overcast,60,2013-02-12 09:55:00
4:15 AM,58.1,58.1,100,29.94,10.0,ENE,10.4,-,N/A,,Overcast,60,2013-02-12 10:15:00
4:35 AM,58.1,58.1,100,29.93,10.0,ENE,5.8,-,N/A,,Overcast,70,2013-02-12 10:35:00
4:55 AM,58.1,58.1,100,29.93,10.0,ENE,6.9,-,N/A,,Overcast,60,2013-02-12 10:55:00
5:15 AM,58.1,58.1,100,29.92,7.0,ENE,6.9,-,N/A,,Overcast,70,2013-02-12 11:15:00
5:35 AM,58.1,58.1,100,29.92,5.0,ENE,5.8,-,N/A,,Overcast,70,2013-02-12 11:35:00
5:55 AM,58.3,58.3,100,29.91,4.0,East,8.1,-,N/A,,Overcast,80,2013-02-12 11:55:00
6:15 AM,58.5,58.5,100,29.91,3.0,ENE,6.9,-,N/A,,Overcast,70,2013-02-12 12:15:00
6:35 AM,58.6,58.6,100,29.90,2.5,East,8.1,-,N/A,,Overcast,90,2013-02-12 12:35:00
6:55 AM,59.0,59.0,100,29.90,2.0,East,6.9,-,N/A,,Overcast,100,2013-02-12 12:55:00
7:15 AM,59.5,59.5,100,29.90,1.8,East,8.1,-,N/A,,Overcast,100,2013-02-12 13:15:00
7:35 AM,60.1,60.1,100,29.89,1.0,East,8.1,-,N/A,,Overcast,100,2013-02-12 13:35:00
7:55 AM,60.8,60.8,100,29.88,1.0,East,5.8,-,N/A,,Overcast,100,2013-02-12 13:55:00
8:15 AM,61.2,61.2,100,29.87,1.2,ESE,6.9,-,N/A,,Overcast,110,2013-02-12 14:15:00
8:35 AM,62.1,62.1,100,29.86,1.0,ESE,8.1,-,N/A,,Overcast,110,2013-02-12 14:35:00
8:55 AM,63.1,63.1,100,29.87,1.8,ESE,9.2,-,N/A,,Overcast,120,2013-02-12 14:55:00
9:15 AM,64.4,64.4,100,29.86,3.0,ESE,10.4,-,N/A,,Overcast,120,2013-02-12 15:15:00
9:35 AM,64.8,64.8,100,29.87,2.0,SE,8.1,-,N/A,,Overcast,140,2013-02-12 15:35:00
9:55 AM,65.3,65.3,100,29.87,1.2,ESE,9.2,-,N/A,,Overcast,120,2013-02-12 15:55:00
10:15 AM,65.7,65.7,100,29.87,1.0,SE,5.8,-,N/A,,Overcast,130,2013-02-12 16:15:00
10:35 AM,66.6,66.6,100,29.87,1.0,SE,6.9,-,N/A,,Overcast,140,2013-02-12 16:35:00
10:55 AM,68.0,68.0,100,29.85,3.0,SE,8.1,-,N/A,,Overcast,140,2013-02-12 16:55:00
11:15 AM,69.3,69.3,100,29.84,5.0,SE,8.1,16.1,N/A,,Overcast,140,2013-02-12 17:15:00
11:35 AM,70.0,70.0,100,29.84,7.0,SSE,8.1,-,N/A,,Overcast,150,2013-02-12 17:35:00
11:55 AM,69.8,69.8,100,29.83,4.0,SSE,8.1,-,N/A,,Overcast,150,2013-02-12 17:55:00
12:15 PM,70.0,70.0,100,29.83,5.0,SSE,5.8,-,N/A,,Overcast,150,2013-02-12 18:15:00
12:55 PM,70.0,70.0,100,29.81,2.5,South,5.8,-,N/A,,Overcast,170,2013-02-12 18:55:00
1:15 PM,70.5,70.5,100,29.79,1.8,SSE,6.9,-,N/A,,Overcast,150,2013-02-12 19:15:00
1:35 PM,72.5,72.5,100,29.77,5.0,SSE,6.9,-,N/A,,Overcast,160,2013-02-12 19:35:00
1:55 PM,75.0,74.8,99,29.77,10.0,South,9.2,-,N/A,,Overcast,180,2013-02-12 19:55:00
2:15 PM,76.5,74.1,92,29.77,10.0,SSW,10.4,21.9,N/A,,Overcast,210,2013-02-12 20:15:00
2:35 PM,76.5,73.9,92,29.76,10.0,SW,13.8,23.0,N/A,,Overcast,230,2013-02-12 20:35:00
2:55 PM,76.3,73.4,91,29.76,10.0,SW,16.1,24.2,N/A,,Overcast,230,2013-02-12 20:55:00
3:15 PM,76.8,73.6,90,29.75,10.0,SW,12.7,25.3,N/A,,Mostly Cloudy,230,2013-02-12 21:15:00
3:55 PM,75.6,73.4,93,29.74,10.0,SW,15.0,21.9,N/A,,Overcast,230,2013-02-12 21:55:00
4:15 PM,75.4,73.2,93,29.76,10.0,SW,13.8,21.9,N/A,,Overcast,230,2013-02-12 22:15:00
4:55 PM,74.5,72.9,95,29.76,10.0,SW,13.8,23.0,N/A,,Overcast,230,2013-02-12 22:55:00
5:15 PM,73.9,72.7,96,29.76,10.0,SW,12.7,20.7,N/A,,Overcast,230,2013-02-12 23:15:00
5:35 PM,73.4,71.8,95,29.77,10.0,WSW,17.3,-,N/A,,Overcast,250,2013-02-12 23:35:00
5:55 PM,72.5,71.4,96,29.79,10.0,West,16.1,20.7,N/A,,Overcast,260,2013-02-12 23:55:00
6:15 PM,69.1,67.3,94,29.80,10.0,WNW,16.1,23.0,N/A,,Mostly Cloudy,290,2013-02-13 00:15:00
6:35 PM,68.0,67.1,97,29.80,10.0,WNW,11.5,18.4,N/A,,Overcast,290,2013-02-13 00:35:00
6:55 PM,66.6,65.3,96,29.81,10.0,WNW,13.8,-,N/A,,Mostly Cloudy,290,2013-02-13 00:55:00
7:15 PM,65.1,63.5,94,29.82,10.0,WNW,9.2,-,N/A,,Mostly Cloudy,290,2013-02-13 01:15:00
7:55 PM,63.7,62.2,95,29.83,10.0,WNW,8.1,-,N/A,,Overcast,300,2013-02-13 01:55:00
8:15 PM,63.3,61.9,95,29.86,10.0,NW,13.8,-,N/A,,Mostly Cloudy,310,2013-02-13 02:15:00
8:35 PM,62.6,61.3,96,29.86,10.0,WNW,6.9,-,N/A,,Mostly Cloudy,290,2013-02-13 02:35:00
8:55 PM,62.1,61.2,97,29.87,10.0,WNW,10.4,-,N/A,,Overcast,300,2013-02-13 02:55:00
9:15 PM,61.2,58.6,91,29.88,10.0,WNW,12.7,-,N/A,,Overcast,290,2013-02-13 03:15:00
9:35 PM,60.1,57.9,93,29.89,10.0,WNW,12.7,-,N/A,,Overcast,300,2013-02-13 03:35:00
9:55 PM,59.7,57.6,93,29.89,10.0,WNW,12.7,17.3,N/A,,Overcast,300,2013-02-13 03:55:00
10:15 PM,58.6,56.7,93,29.90,10.0,WNW,17.3,-,N/A,,Mostly Cloudy,300,2013-02-13 04:15:00
10:35 PM,58.1,56.1,93,29.91,10.0,NW,13.8,-,N/A,,Mostly Cloudy,320,2013-02-13 04:35:00
10:55 PM,57.7,56.1,94,29.90,10.0,NW,8.1,-,N/A,,Mostly Cloudy,320,2013-02-13 04:55:00
11:35 PM,57.2,55.4,94,29.91,10.0,NW,8.1,-,N/A,,Clear,320,2013-02-13 05:35:00
11:55 PM,56.5,55.6,97,29.91,10.0,NW,6.9,-,N/A,,Clear,320,2013-02-13 05:55:00